Temperature
23 23 23 22 22 22 21 21 20 20 20 20 19 19 19 19 18 18 18 18 18 18 18 18 18 18 18 18 18 18 18 18 18 18 18 18 18 18 18 18 18 17 17
23 23 23 22 22 22 21 21 21 20 20 20 19 19 19 19 18 18 18 18 18 18 18 18 18 18 18 18 18 18 18 18 18 18 18 17 18 18 17 17 17 17 17
24 23 23 22 22 22 22 21 21 20 20 20 19 19 19 19 18 18 18 18 18 18 18 18 18 18 18 18 18 18 18 18 18 17 17 17 17 17 17 17 17 17 17
24 24 23 23 22 22 22 21 21 20 20 20 19 19 19 19 19 18 18 18 18 18 18 18 18 18 18 18 18 18 18 18 18 17 17 17 17 17 17 17 17 17 16
24 24 23 23 23 22 22 21 21 20 20 20 19 19 19 19 19 18 18 18 18 18 18 18 18 18 18 18 18 18 18 17 17 17 17 17 17 17 16 16 16 16 16
24 24 24 23 22 22 21 21 21 20 20 20 19 19 19 19 19 18 18 18 18 18 18 18 18 18 18 18 18 18 17 17 17 17 17 17 17 17 16 16 16 16 16
24 24 23 23 23 22 21 21 21 20 20 20 19 19 19 19 19 18 18 18 18 18 18 18 18 18 18 18 17 17 17 17 17 17 17 17 16 16 16 16 16 15 15
25 24 24 23 23 22 22 21 21 21 20 20 20 19 19 19 19 18 18 18 18 18 17 17 17 17 17 17 17 17 17 17 17 17 16 16 16 16 16 16 15 15 15
25 24 24 23 23 23 22 22 21 21 20 20 20 19 19 19 19 18 18 18 18 17 17 17 17 17 17 17 17 17 17 17 17 16 16 16 16 16 16 16 15 15 14
25 24 24 23 23 23 22 22 21 21 20 20 20 19 19 19 18 18 18 18 17 17 17 17 17 17 17 17 17 17 16 16 16 16 16 16 16 16 15 15 15 15 15
25 24 24 23 23 23 22 22 21 21 20 20 20 19 19 19 18 18 18 17 17 17 17 17 17 17 17 17 16 16 16 16 16 16 16 16 16 15 15 15 15 15 15
25 25 24 23 23 22 22 22 21 21 21 20 20 19 19 19 18 18 18 17 17 17 17 16 16 16 16 16 16 16 16 16 16 15 15 15 15 15 15 15 15 14 14
24 24 24 23 23 23 22 22 21 21 21 20 20 19 19 18 18 18 17 17 17 17 16 16 16 16 16 16 16 16 16 15 15 15 15 15 15 15 15 14 14 14 14
24 24 24 24 23 23 22 22 21 21 21 20 20 19 19 18 18 18 17 17 17 16 16 16 16 16 16 15 15 15 15 15 15 14 14 14 14 14 14 14 14 14 13
24 23 24 23 23 23 22 22 21 21 21 20 19 19 19 18 18 17 17 17 16 16 16 16 16 15 15 15 15 15 15 14 14 14 14 14 14 14 14 13 13 13 13
23 23 23 23 23 23 22 22 21 21 20 20 20 19 18 18 17 17 17 16 16 16 16 15 15 15 15 15 15 14 14 14 14 14 14 13 13 13 13 13 13 13 13
23 23 23 23 23 23 22 22 21 21 20 20 19 19 18 18 17 17 16 16 16 16 15 15 15 15 15 15 14 14 14 14 14 14 13 13 13 13 13 12 12 12 12
24 24 24 23 23 22 22 22 21 20 20 19 19 19 18 18 17 17 16 16 16 15 15 15 15 15 14 14 14 14 14 13 13 13 13 13 13 12 12 12 12 12 12
25 24 24 24 23 22 22 21 20 20 20 19 19 19 18 17 17 17 16 16 15 15 15 15 14 14 14 14 14 13 13 13 13 13 12 12 12 12 12 12 12 11 11
24 24 23 23 22 22 21 21 20 20 19 19 19 18 18 17 17 16 16 15 15 15 14 14 14 14 14 13 13 13 13 13 13 12 12 12 12 11 11 11 11 11 11
24 23 23 22 22 22 21 21 20 20 20 19 19 18 17 17 16 16 15 15 15 15 14 14 14 14 13 13 13 13 12 12 12 12 12 11 11 11 11 11 11 11 11
23 23 22 22 22 21 21 20 20 20 19 19 18 18 17 16 16 15 15 15 14 14 14 14 14 13 13 13 12 12 12 12 12 12 11 11 11 11 11 11 11 11 10
22 22 22 21 21 21 20 20 20 19 18 18 18 17 17 16 16 15 15 15 14 14 14 14 13 13 13 12 12 12 12 12 12 11 11 11 11 11 11 11 10 10 10
21 21 21 20 20 20 20 20 19 18 18 18 17 17 16 16 16 15 15 15 14 14 14 13 13 13 13 12 12 12 12 11 11 11 11 11 11 11 11 10 10 10 10
20 20 20 20 19 19 19 19 18 18 18 17 17 16 16 16 15 15 15 14 14 14 14 13 13 13 13 12 12 12 11 11 11 11 11 11 11 10 10 10 10 10 10
20 20 19 19 19 19 18 18 18 18 17 17 17 16 16 15 15 15 14 14 14 13 13 13 13 13 12 12 12 12 11 11 11 11 11 11 10 10 10 10 10 10 10
Wind_Speed
10 10 10 11 10 8 8 7 6 5 4 2 2 2 1 1 1 2 4 5 4 4 3 1 1 1 1 2 1 1 1 1 1 1 2 2 2 2 2 3 3 5 8
9 10 10 10 10 9 8 7 7 6 5 4 3 2 2 2 2 1 2 3 4 4 3 3 2 2 2 1 1 1 1 1 1 2 1 1 3 2 1 1 2 3 3
15 13 12 10 10 9 8 8 7 6 5 4 2 2 2 2 1 0 1 1 3 4 2 2 2 2 2 2 2 2 3 2 1 2 3 2 2 2 2 0 1 1 1
13 13 13 11 11 10 8 7 7 6 5 4 4 4 3 2 2 2 1 1 1 2 2 2 2 2 2 2 2 2 2 3 2 1 1 2 3 2 1 2 1 1 1
15 14 14 13 11 10 9 7 6 5 4 4 5 4 3 2 1 1 1 0 0 0 1 2 2 1 1 1 1 1 1 2 2 2 1 1 1 2 2 1 1 1 1
14 13 12 10 9 9 8 7 7 5 4 4 4 5 4 3 2 1 1 0 1 1 1 1 1 1 1 1 1 1 1 2 2 2 2 2 2 2 2 2 1 0 0
14 13 12 11 11 10 9 8 8 5 4 4 4 4 4 4 3 3 2 1 1 1 1 1 1 1 1 1 1 1 1 1 2 1 1 1 2 2 3 3 2 1 0
14 14 14 13 12 12 11 9 9 6 5 4 4 3 3 3 2 2 2 2 2 1 1 1 1 1 2 2 2 2 1 2 2 1 1 1 0 1 2 3 3 2 1
13 14 13 12 12 12 11 11 10 7 6 5 4 3 3 3 3 2 1 1 1 1 2 2 2 3 3 2 3 3 2 3 2 2 2 1 0 0 1 2 3 4 2
11 12 12 11 11 11 10 10 10 8 7 6 5 4 3 3 3 3 3 3 3 2 3 3 3 4 4 3 4 3 3 4 3 3 3 2 1 1 1 1 1 2 4
13 13 12 11 11 10 10 10 9 7 6 6 5 4 4 3 3 3 3 3 3 4 4 4 4 5 4 4 4 4 4 5 4 4 4 3 2 2 2 2 2 3 4
13 13 13 12 11 11 11 10 10 8 7 7 6 5 4 4 4 4 4 4 5 4 4 4 4 4 5 4 5 5 5 5 5 4 4 4 3 4 3 3 3 3 4
11 11 12 13 12 12 11 11 10 9 8 8 7 6 5 5 5 4 4 5 5 5 4 5 5 5 5 5 5 5 5 4 4 4 4 4 5 5 4 4 4 4 4
12 13 12 12 12 12 11 11 10 9 10 9 8 7 6 5 5 5 5 6 6 6 6 6 5 5 5 5 5 5 5 5 5 5 5 4 5 4 4 4 5 5 6
12 14 14 13 12 12 11 11 10 9 10 9 9 8 6 6 5 6 6 6 6 7 6 6 6 5 5 4 5 5 5 5 5 5 5 5 7 7 5 4 4 6 5
13 13 13 13 13 13 12 11 11 10 10 10 9 8 7 7 6 6 6 7 6 6 6 6 6 6 4 6 7 6 5 4 5 4 4 5 6 8 9 9 8 7 6
12 13 13 13 13 13 12 13 12 10 10 10 9 9 8 8 7 7 7 7 6 6 6 5 6 5 5 7 7 8 5 5 4 4 4 4 5 5 5 8 10 9 9
12 12 12 11 10 10 11 11 11 11 11 10 9 9 9 9 8 7 7 6 5 5 5 5 5 5 5 7 7 8 6 5 5 4 4 4 4 4 5 6 6 6 5
11 10 11 11 11 13 13 12 11 10 10 10 10 10 10 9 8 8 7 6 6 5 4 4 4 5 4 6 7 7 5 5 5 4 4 4 4 6 7 7 6 5 4
8 9 9 10 11 13 14 14 13 12 11 11 10 10 9 9 8 8 6 5 6 5 5 4 3 3 3 4 7 7 5 5 4 3 4 5 5 6 7 6 5 5 2
7 10 11 11 11 12 14 13 13 12 11 10 10 9 9 9 8 7 6 6 6 6 5 4 3 2 3 4 6 7 4 4 4 3 2 2 5 6 6 5 4 3 3
8 10 10 9 10 12 13 12 11 10 10 10 10 9 9 8 7 8 6 6 6 6 5 4 3 1 2 3 5 7 6 6 4 2 1 0 3 4 5 3 3 4 5
8 8 10 9 9 10 12 12 9 10 11 11 10 9 8 7 7 8 8 6 6 5 4 4 3 1 0 1 4 5 6 6 3 2 1 0 2 3 2 3 3 3 3
7 7 9 10 9 9 9 10 10 11 12 11 10 9 8 7 6 6 6 6 6 5 5 5 4 3 1 1 1 2 3 4 3 1 1 2 2 2 2 2 2 2 2
6 6 8 9 9 9 8 9 11 12 11 10 9 8 8 8 6 4 3 4 4 6 7 6 6 6 4 5 6 5 3 3 2 2 2 2 2 2 2 2 2 2 2
6 7 8 8 8 8 8 9 11 12 12 10 9 8 7 6 6 6 4 4 2 2 6 7 7 5 6 8 8 7 6 5 5 4 2 1 1 1 1 1 0 1 1
Wind_Direction
179 169 162 158 153 153 151 157 156 165 155 144 149 151 172 187 191 200 192 189 187 174 168 181 191 166 172 214 201 172 175 222 147 76 344 330 296 234 207 182 175 190 199
167 167 163 159 160 163 165 164 165 168 169 168 171 171 168 180 184 196 192 192 185 181 181 182 182 183 184 205 211 171 171 238 154 140 120 340 335 328 251 164 180 195 190
174 172 169 168 165 170 174 171 169 169 173 166 139 112 83 68 71 77 230 226 189 181 180 169 169 177 177 200 221 198 182 209 244 161 150 163 232 292 334 355 131 141 151
176 174 173 172 174 177 174 165 166 168 170 156 149 155 163 177 198 193 206 238 199 191 184 178 171 173 179 199 220 188 180 170 207 241 199 183 172 169 284 342 51 93 109
179 178 178 177 175 172 169 166 161 162 162 156 161 160 162 180 186 162 161 200 297 234 199 191 180 184 187 203 216 183 161 167 178 191 196 177 169 156 164 237 314 27 50
177 177 175 167 165 163 163 162 158 160 155 152 152 157 162 163 152 140 151 205 275 296 280 177 169 185 182 188 188 164 145 158 165 176 165 161 173 185 165 194 212 202 15
173 171 167 164 164 164 164 164 158 158 156 151 152 160 165 164 167 172 174 184 218 255 255 201 177 179 179 151 137 116 113 131 138 158 161 155 183 166 154 156 175 172 148
174 172 171 169 169 167 165 163 161 159 156 154 154 152 152 154 159 170 171 190 201 221 213 133 108 80 80 88 79 79 89 87 95 89 100 113 171 157 159 159 153 144 81
172 171 169 169 167 166 167 165 163 162 162 159 151 145 145 144 142 137 135 145 161 128 83 80 73 67 76 79 81 77 69 74 73 64 64 72 24 76 168 158 160 155 160
163 165 167 167 167 166 163 160 161 166 162 157 159 154 144 136 131 117 97 88 77 74 76 78 78 72 66 67 75 71 63 67 55 60 60 51 36 44 66 130 140 143 150
168 168 169 164 160 155 155 157 159 157 156 156 148 139 133 127 115 112 107 99 86 76 73 78 77 71 67 71 77 72 68 69 56 49 55 41 46 65 56 74 97 110 121
166 166 162 158 159 161 162 160 160 158 160 155 144 138 129 118 110 102 97 99 92 83 85 80 76 71 67 71 82 79 68 68 62 50 52 39 55 57 56 78 93 106 112
160 160 157 161 168 169 167 163 161 160 156 148 142 138 134 128 121 113 104 98 96 91 81 81 78 70 66 72 79 80 74 69 63 56 62 53 64 60 59 73 88 98 105
164 164 163 167 171 171 167 163 162 159 154 148 145 143 144 140 131 117 111 105 101 96 85 78 76 71 67 68 77 81 76 71 63 57 60 60 67 69 66 79 86 97 97
165 169 169 170 171 168 165 162 162 159 155 150 149 151 147 137 125 114 108 102 98 98 90 84 73 65 66 68 81 86 85 77 67 58 54 61 73 76 75 92 98 105 105
168 170 168 168 170 170 166 162 164 160 153 153 154 148 139 133 125 115 109 102 96 92 87 82 80 69 68 76 84 94 86 81 80 74 62 61 57 65 70 77 86 106 118
168 170 171 172 172 173 167 164 162 155 152 153 151 147 145 142 137 129 117 111 106 100 93 84 80 73 65 75 85 92 95 82 80 80 73 72 57 58 74 77 75 72 85
171 173 171 167 166 164 157 153 150 150 151 152 152 151 149 144 138 130 127 122 115 110 105 96 86 75 62 74 89 94 88 82 73 74 84 83 58 62 90 94 79 67 59
175 171 168 158 156 156 153 147 146 148 150 154 155 154 149 145 141 138 136 130 122 115 113 111 98 85 59 73 96 100 96 87 71 62 70 84 75 71 89 93 89 75 53
160 156 151 143 149 155 151 149 154 157 161 162 158 152 149 148 149 146 141 133 131 127 123 111 107 105 83 84 108 114 110 101 86 59 52 66 82 85 90 98 103 97 67
144 147 146 150 154 153 150 155 160 167 165 157 149 147 149 151 149 143 139 140 138 129 129 122 109 100 92 92 117 123 119 127 117 95 56 36 76 86 89 104 118 139 135
134 140 142 146 150 148 153 159 167 163 152 148 147 150 151 154 150 142 141 145 145 140 140 131 113 71 67 87 115 127 125 128 123 126 137 320 84 82 84 94 106 115 109
139 140 139 141 147 154 158 161 164 151 148 147 151 153 151 146 147 149 153 155 155 156 161 155 153 156 87 73 108 123 131 129 122 152 186 161 84 69 58 61 81 94 97
135 137 140 143 151 158 158 160 155 150 149 151 152 153 151 147 147 151 157 161 167 170 171 168 169 168 156 156 131 117 117 112 95 73 9 22 45 57 27 30 52 79 122
141 147 154 155 160 160 156 155 152 150 149 151 153 155 154 153 150 140 139 165 181 189 181 182 175 171 186 212 188 163 157 156 146 105 60 48 45 45 31 31 37 50 80
141 145 152 154 156 154 154 156 156 155 154 155 157 160 160 156 152 143 115 60 93 154 184 179 172 182 186 179 177 169 162 156 141 116 110 124 135 163 187 179 121 77 129
Height
1542 1545 1547 1548 1550 1551 1552 1553 1554 1555 1556 1556 1557 1557 1557 1558 1558 1558 1558 1558 1558 1559 1559 1559 1559 1559 1559 1559 1559 1560 1560 1560 1560 1560 1560 1560 1560 1560 1560 1560 1560 1560 1561
1541 1543 1545 1547 1548 1550 1551 1552 1553 1554 1554 1555 1556 1556 1556 1556 1557 1557 1557 1557 1558 1558 1558 1558 1558 1558 1558 1558 1558 1558 1558 1558 1558 1558 1558 1558 1559 1558 1558 1558 1558 1558 1559
1537 1540 1543 1545 1546 1548 1549 1551 1552 1552 1553 1554 1554 1555 1555 1555 1556 1556 1556 1556 1556 1556 1556 1556 1556 1556 1556 1556 1556 1556 1556 1556 1556 1556 1557 1556 1555 1556 1556 1556 1556 1556 1556
1535 1538 1540 1542 1544 1546 1548 1549 1550 1551 1552 1552 1553 1553 1554 1554 1554 1555 1555 1555 1555 1555 1555 1555 1555 1554 1554 1554 1554 1554 1554 1554 1553 1554 1553 1554 1554 1554 1553 1554 1554 1554 1554
1533 1535 1538 1540 1542 1545 1546 1548 1549 1550 1550 1551 1551 1552 1552 1553 1553 1553 1554 1554 1554 1554 1554 1553 1553 1553 1553 1552 1552 1552 1551 1551 1551 1551 1551 1551 1551 1551 1551 1551 1552 1552 1552
1531 1534 1537 1539 1541 1543 1545 1546 1547 1548 1549 1549 1550 1550 1551 1551 1552 1552 1552 1552 1552 1552 1552 1552 1551 1551 1551 1550 1550 1550 1549 1549 1548 1548 1548 1548 1548 1548 1548 1548 1549 1550 1551
1528 1531 1534 1537 1540 1542 1543 1544 1546 1547 1548 1548 1549 1549 1550 1550 1550 1550 1551 1551 1551 1551 1551 1550 1550 1549 1549 1548 1548 1548 1547 1547 1546 1546 1546 1545 1546 1546 1546 1546 1547 1548 1549
1525 1528 1531 1535 1538 1540 1541 1543 1544 1545 1546 1547 1548 1548 1548 1549 1549 1549 1549 1549 1549 1549 1549 1549 1549 1548 1547 1547 1546 1546 1545 1544 1544 1544 1544 1543 1544 1544 1544 1544 1545 1546 1547
1522 1526 1529 1533 1536 1538 1540 1542 1543 1545 1546 1547 1548 1548 1548 1548 1548 1548 1548 1548 1548 1548 1548 1548 1547 1547 1546 1545 1545 1544 1543 1543 1542 1542 1542 1542 1542 1542 1542 1542 1543 1544 1544
1520 1524 1528 1532 1535 1537 1539 1541 1543 1544 1545 1546 1547 1547 1547 1547 1547 1547 1547 1547 1547 1547 1547 1546 1546 1546 1545 1544 1544 1543 1542 1542 1541 1541 1541 1540 1540 1540 1540 1541 1541 1542 1543
1518 1522 1526 1530 1533 1536 1538 1540 1542 1544 1545 1546 1547 1547 1547 1547 1547 1547 1547 1547 1547 1547 1546 1546 1545 1545 1544 1544 1543 1542 1542 1541 1540 1540 1539 1539 1539 1539 1539 1539 1540 1540 1541
1516 1520 1524 1528 1531 1534 1536 1538 1540 1542 1544 1545 1546 1547 1547 1547 1547 1547 1547 1547 1547 1546 1546 1545 1545 1544 1544 1543 1542 1542 1541 1540 1540 1539 1539 1538 1538 1538 1538 1538 1539 1539 1540
1515 1519 1522 1525 1529 1532 1534 1536 1539 1541 1543 1544 1545 1546 1547 1547 1547 1547 1547 1547 1546 1546 1546 1545 1544 1544 1543 1543 1542 1542 1541 1540 1539 1539 1539 1538 1538 1538 1538 1538 1538 1539 1540
1512 1516 1519 1523 1526 1529 1532 1534 1537 1539 1541 1543 1544 1545 1546 1546 1547 1546 1546 1546 1546 1546 1546 1545 1545 1544 1544 1543 1543 1542 1541 1540 1540 1539 1539 1538 1538 1538 1538 1538 1539 1539 1540
1511 1514 1517 1520 1523 1527 1530 1533 1535 1538 1540 1541 1543 1544 1545 1546 1546 1546 1546 1546 1546 1546 1546 1545 1545 1545 1544 1544 1543 1542 1542 1541 1540 1540 1539 1539 1539 1539 1539 1539 1539 1540 1540
1509 1512 1515 1518 1521 1525 1527 1531 1533 1536 1538 1540 1542 1543 1544 1545 1546 1546 1546 1546 1546 1546 1546 1546 1545 1545 1544 1544 1544 1543 1542 1541 1541 1540 1540 1540 1540 1540 1540 1540 1540 1541 1541
1506 1509 1512 1516 1519 1523 1526 1529 1532 1535 1537 1539 1541 1542 1543 1544 1545 1545 1545 1545 1546 1546 1546 1546 1546 1545 1545 1545 1544 1544 1543 1542 1542 1541 1541 1540 1540 1540 1540 1541 1541 1541 1542
1503 1506 1510 1513 1517 1521 1524 1528 1530 1533 1535 1537 1539 1540 1541 1542 1543 1544 1544 1545 1545 1546 1546 1546 1546 1545 1545 1545 1545 1544 1544 1543 1542 1542 1542 1542 1541 1541 1541 1541 1541 1542 1543
1500 1503 1507 1510 1515 1518 1522 1526 1528 1531 1533 1535 1537 1538 1540 1541 1542 1542 1543 1544 1545 1545 1546 1546 1546 1545 1545 1545 1545 1545 1544 1544 1543 1543 1543 1543 1543 1543 1543 1543 1543 1543 1544
1499 1502 1505 1508 1511 1516 1519 1523 1525 1528 1531 1533 1535 1537 1538 1540 1541 1542 1543 1544 1544 1545 1546 1546 1546 1545 1545 1545 1545 1545 1545 1544 1544 1544 1544 1544 1544 1544 1545 1545 1544 1544 1545
1497 1500 1504 1506 1508 1512 1516 1520 1523 1525 1528 1531 1533 1535 1537 1539 1540 1541 1542 1543 1544 1544 1545 1545 1545 1545 1545 1545 1545 1545 1545 1545 1545 1545 1545 1545 1545 1545 1546 1546 1546 1546 1547
1496 1499 1501 1504 1507 1510 1513 1517 1521 1524 1527 1529 1531 1534 1536 1537 1539 1540 1541 1542 1543 1544 1544 1544 1545 1545 1545 1545 1545 1545 1546 1546 1546 1546 1546 1546 1546 1546 1547 1547 1547 1547 1548
1495 1498 1501 1504 1506 1508 1511 1515 1519 1522 1525 1527 1529 1532 1534 1536 1537 1538 1539 1540 1542 1543 1543 1544 1544 1544 1544 1545 1545 1545 1546 1546 1546 1546 1547 1547 1547 1547 1547 1548 1548 1548 1548
1495 1497 1500 1502 1505 1507 1511 1514 1517 1520 1522 1525 1527 1530 1532 1534 1535 1537 1538 1539 1540 1541 1542 1542 1543 1543 1544 1544 1544 1545 1545 1546 1546 1546 1547 1547 1547 1548 1548 1548 1548 1548 1548
1494 1497 1499 1501 1504 1506 1509 1512 1515 1517 1520 1522 1525 1527 1530 1532 1533 1535 1536 1537 1538 1539 1540 1540 1541 1541 1542 1543 1544 1544 1545 1545 1546 1546 1546 1547 1547 1547 1548 1548 1548 1548 1548
1493 1495 1498 1500 1502 1505 1507 1510 1512 1515 1517 1519 1522 1525 1527 1529 1530 1532 1534 1535 1536 1537 1538 1538 1539 1540 1541 1541 1542 1543 1544 1545 1545 1545 1546 1546 1546 1547 1547 1547 1547 1547 1547